| time (UTC) | temp F | wind direction | speed knots | gust knots | rain 1hr in | rain 24hr in | rain mn in | humidity % | barometer mb |
| 20260506061516 | 52 | 360 | 4.3 | 12.2 | 0.00 | 0.00 | 0.00 | 76 | 1011.5 |
| 20260506044501 | 53 | 360 | 5.2 | 10.4 | 0.00 | 0.00 | 0.00 | 75 | 1010.8 |
| 20260506043100 | 54 | 360 | 5.2 | 11.3 | 0.00 | 0.00 | 0.00 | 74 | 1010.9 |
| 20260506041558 | 54 | 360 | 2.6 | 10.4 | 0.00 | 0.00 | 0.00 | 74 | 1010.8 |
| 20260506040055 | 54 | 360 | 4.3 | 13.0 | 0.00 | 0.00 | 0.00 | 73 | 1010.6 |
| 20260506034559 | 55 | 360 | 3.5 | 13.9 | 0.00 | 0.00 | 0.00 | 73 | 1010.5 |
| 20260506033052 | 55 | 360 | 7.8 | 15.6 | 0.00 | 0.00 | 0.00 | 73 | 1010.2 |
| 20260506031554 | 55 | 360 | 7.8 | 13.9 | 0.00 | 0.00 | 0.00 | 72 | 1009.8 |
| 20260506030046 | 56 | 360 | 7.0 | 13.0 | 0.00 | 0.00 | 0.00 | 72 | 1010.0 |
| 20260506024547 | 56 | 360 | 4.3 | 13.9 | 0.00 | 0.00 | 0.00 | 71 | 1010.1 |
| 20260506023043 | 56 | 360 | 9.6 | 18.2 | 0.00 | 0.00 | 0.00 | 72 | 1009.8 |
| 20260506021552 | 56 | 360 | 7.0 | 16.5 | 0.00 | 0.00 | 0.00 | 73 | 1009.5 |
| 20260506020039 | 56 | 360 | 6.1 | 14.8 | 0.00 | 0.00 | 0.00 | 73 | 1009.3 |
| 20260506014536 | 56 | 360 | 7.8 | 17.4 | 0.00 | 0.00 | 0.00 | 73 | 1008.8 |
| 20260506013033 | 57 | 360 | 9.6 | 16.5 | 0.00 | 0.00 | 0.00 | 74 | 1008.5 |
| 20260506011531 | 57 | 360 | 5.2 | 13.0 | 0.00 | 0.00 | 0.00 | 73 | 1008.1 |
| 20260506010036 | 58 | 360 | 7.0 | 13.0 | 0.00 | 0.00 | 0.00 | 73 | 1007.9 |
| 20260506004525 | 58 | 360 | 6.1 | 14.8 | 0.00 | 0.00 | 0.00 | 73 | 1007.7 |
| 20260506003023 | 59 | 360 | 9.6 | 14.8 | 0.00 | 0.00 | 0.00 | 72 | 1007.6 |
| 20260506001518 | 60 | 360 | 7.0 | 16.5 | 0.00 | 0.00 | 0.00 | 70 | 1007.5 |
| 20260506000014 | 62 | 360 | 5.2 | 13.9 | 0.00 | 0.00 | 0.00 | 69 | 1006.9 |
| 20260505234513 | 62 | 360 | 8.7 | 15.6 | 0.00 | 0.00 | 0.00 | 68 | 1006.8 |
| 20260505233007 | 64 | 360 | 7.8 | 16.5 | 0.00 | 0.00 | 0.00 | 66 | 1006.7 |
| 20260505231504 | 66 | 360 | 10.4 | 16.5 | 0.00 | 0.00 | 0.00 | 65 | 1006.7 |
| 20260505230100 | 67 | 360 | 8.7 | 15.6 | 0.00 | 0.00 | 0.00 | 63 | 1006.6 |
| 20260505224556 | 69 | 360 | 7.0 | 15.6 | 0.00 | 0.00 | 0.00 | 61 | 1006.7 |
| 20260505223106 | 70 | 360 | 7.8 | 13.9 | 0.00 | 0.00 | 0.00 | 60 | 1006.5 |
| 20260505221553 | 70 | 360 | 6.1 | 13.9 | 0.00 | 0.00 | 0.00 | 60 | 1006.6 |
| 20260505220054 | 71 | 360 | 5.2 | 12.2 | 0.00 | 0.00 | 0.00 | 59 | 1006.2 |
| 20260505214558 | 71 | 360 | 6.1 | 14.8 | 0.00 | 0.00 | 0.00 | 58 | 1006.3 |
| 20260505213054 | 71 | 360 | 7.0 | 15.6 | 0.00 | 0.00 | 0.00 | 58 | 1006.5 |
| 20260505211603 | 71 | 360 | 6.1 | 12.2 | 0.00 | 0.00 | 0.00 | 57 | 1006.5 |
| 20260505210050 | 71 | 360 | 7.8 | 14.8 | 0.00 | 0.00 | 0.00 | 58 | 1006.5 |
| 20260505204548 | 72 | 360 | 4.3 | 11.3 | 0.00 | 0.00 | 0.00 | 58 | 1005.9 |
| 20260505203108 | 72 | 360 | 5.2 | 11.3 | 0.00 | 0.00 | 0.00 | 57 | 1006.1 |
| 20260505201547 | 73 | 360 | 6.1 | 11.3 | 0.00 | 0.00 | 0.00 | 56 | 1006.1 |
| 20260505200048 | 73 | 360 | 6.1 | 15.6 | 0.00 | 0.00 | 0.00 | 57 | 1006.1 |
| 20260505194546 | 72 | 360 | 8.7 | 14.8 | 0.00 | 0.00 | 0.00 | 58 | 1006.1 |
| 20260505193044 | 73 | 360 | 8.7 | 17.4 | 0.00 | 0.00 | 0.00 | 57 | 1006.2 |
| 20260505191547 | 74 | 360 | 8.7 | 16.5 | 0.00 | 0.00 | 0.00 | 57 | 1006.1 |
| 20260505190045 | 74 | 360 | 8.7 | 17.4 | 0.00 | 0.00 | 0.00 | 56 | 1005.7 |
| 20260505184549 | 75 | 40 | 7.0 | 12.2 | 0.00 | 0.00 | 0.00 | 56 | 1005.7 |
| 20260505183045 | 74 | 49 | 7.0 | 12.2 | 0.00 | 0.00 | 0.00 | 58 | 1005.6 |
| 20260505181539 | 74 | 360 | 6.1 | 14.8 | 0.00 | 0.00 | 0.00 | 58 | 1005.7 |
| 20260505180044 | 74 | 48 | 9.6 | 15.6 | 0.00 | 0.00 | 0.00 | 58 | 1005.8 |
| 20260505174535 | 75 | 55 | 8.7 | 15.6 | 0.00 | 0.00 | 0.00 | 59 | 1005.0 |
| 20260505173033 | 76 | 45 | 6.1 | 16.5 | 0.00 | 0.00 | 0.00 | 60 | 1004.5 |
| 20260505171530 | 77 | 57 | 6.1 | 18.2 | 0.00 | 0.00 | 0.00 | 58 | 1004.2 |
| 20260505170035 | 79 | 69 | 6.1 | 13.9 | 0.00 | 0.00 | 0.00 | 56 | 1003.8 |
| 20260505164530 | 78 | 56 | 7.8 | 14.8 | 0.00 | 0.00 | 0.00 | 53 | 1003.7 |
| 20260505163027 | 79 | 59 | 7.8 | 15.6 | 0.00 | 0.00 | 0.00 | 44 | 1003.6 |
| 20260505161521 | 79 | 61 | 7.0 | 16.5 | 0.00 | 0.00 | 0.00 | 36 | 1003.4 |
| 20260505153013 | 82 | 55 | 5.2 | 15.6 | 0.00 | 0.00 | 0.00 | 40 | 1002.4 |
| 20260505151509 | 80 | 360 | 7.0 | 13.9 | 0.00 | 0.00 | 0.00 | 50 | 1002.2 |
| 20260505124538 | 69 | 360 | 6.1 | 10.4 | 0.00 | 0.00 | 0.00 | 81 | 1000.8 |
| 20260505123036 | 69 | 360 | 5.2 | 8.7 | 0.00 | 0.00 | 0.00 | 81 | 1000.7 |
| 20260505121538 | 68 | 360 | 5.2 | 10.4 | 0.00 | 0.00 | 0.00 | 81 | 1000.5 |
| 20260505120032 | 69 | 360 | 7.0 | 11.3 | 0.00 | 0.00 | 0.00 | 81 | 1000.5 |
| 20260505114531 | 69 | 360 | 7.0 | 12.2 | 0.00 | 0.00 | 0.00 | 80 | 1000.5 |
| 20260505113039 | 69 | 360 | 6.1 | 12.2 | 0.00 | 0.00 | 0.00 | 80 | 1000.3 |
| 20260505111539 | 69 | 360 | 6.1 | 10.4 | 0.00 | 0.00 | 0.00 | 79 | 1000.3 |
| 20260505101526 | 71 | 360 | 6.1 | 14.8 | 0.00 | 0.00 | 0.00 | 77 | 1000.0 |
| 20260505100016 | 71 | 360 | 7.0 | 12.2 | 0.00 | 0.00 | 0.00 | 76 | 999.9 |
| 20260505094513 | 72 | 360 | 7.8 | 13.0 | 0.00 | 0.00 | 0.00 | 75 | 999.9 |
| 20260505093011 | 72 | 360 | 7.8 | 13.9 | 0.00 | 0.00 | 0.00 | 75 | 999.9 |
| 20260505091509 | 73 | 360 | 7.8 | 13.9 | 0.00 | 0.00 | 0.00 | 74 | 1000.0 |
| 20260505090007 | 73 | 360 | 7.8 | 14.8 | 0.00 | 0.00 | 0.00 | 73 | 1000.1 |
| 20260505084521 | 74 | 360 | 9.6 | 14.8 | 0.00 | 0.00 | 0.00 | 73 | 1000.2 |
| 20260505083002 | 74 | 360 | 7.8 | 14.8 | 0.00 | 0.00 | 0.00 | 72 | 1000.2 |
| 20260505081600 | 74 | 360 | 7.8 | 14.8 | 0.00 | 0.00 | 0.00 | 72 | 1000.4 |
| 20260505080058 | 74 | 360 | 7.8 | 18.2 | 0.00 | 0.00 | 0.00 | 72 | 1000.4 |
| 20260505074557 | 75 | 360 | 8.7 | 15.6 | 0.00 | 0.00 | 0.00 | 71 | 1000.4 |
| 20260505073057 | 75 | 360 | 7.0 | 13.9 | 0.00 | 0.00 | 0.00 | 71 | 1000.5 |
| 20260505071558 | 75 | 360 | 7.8 | 13.9 | 0.00 | 0.00 | 0.00 | 70 | 1000.7 |